Location: Helion Bumpstead
(52.0500°N, 0.4000°E)
Time: 22:01:13
(UTC+00:00)

Cosmos 371 Rocket - Pass Details

Date: 15 November 2025
Orbit: 674 x 690 km, 74.0° (Epoch: 14 December)

Event Time Altitude Azimuth Distance (km) Brightness Sun altitude
Exits shadow 04:11:45 55° 46° (NE) 830 3.8 -28.5°
Maximum altitude 04:12:01 56° 60° (ENE) 823 3.8 -28.4°
Drops below altitude 10° 04:16:46 10° 139° (SE) 2,140 6.2 -27.7°
Sets 04:19:06 0° 144° (SE) 3,052 7.0 -27.3°
